sat.trackr.live / text

‹ back to catalog

STARLINK-30895

NORAD 58418 · 2023-180S

PAYLOAD ACTIVE UNKNOWN

§ Identity

Operator
Country
US
Launch date
2023-11-22
Launch site
AFETR
Launch vehicle
Mass (kg)
RCS (m²)

Purposes: comms

External: N2YO · Heavens-Above · Gunter

§ Orbital elements

Epoch: 2026-09-20T08:28:48.048096Z

Period
94.08 min
Inclination
43.0018°
Eccentricity
0.0004381
Mean motion
15.30546362 rev/d
Perigee alt
471.2 km
Apogee alt
477.2 km
Semi-major
6,852.3 km
B*
1.2137e-3
RAAN
32.6431°
Arg perigee
319.4093°
Mean anomaly
40.6433°
Rev number
15,729

§ Raw data

STARLINK-308951 58418U 23180S   26263.35333389  .00036509  00000+0  12137-2 0  99942 58418  43.0018  32.6431 0004381 319.4093  40.6433 15.30546362157297

JSON: /api/v1/satellites/58418 · /tle

For live sub-satellite position, see the globe view (requires WebGL).

§ Visibility from observer

Set your observer location to see the next 7 days of passes ≥ 10°. The values pass through the URL so the page stays shareable.

No JS? Fill the form by hand. The geolocation button needs JavaScript.